Location: Oshawa
(43.9000°N, 78.8670°W)
Time: 13:14:32
(UTC-04:00)

Iridium 98 - Visible Passes

Search period start: 27 September 2016 00:00
Search period end: 07 October 2016 00:00
Orbit: 776 x 779 km, 86.4° (Epoch: 26 September)

Date Brightness Start Highest point End Pass type
(mag) Time Alt. Az. Time Alt. Az. Time Alt. Az.
27 Sep 5.7 20:45:36 10° N 20:50:41 49° E 20:51:54 41° ESE visible
27 Sep 7.7 22:27:12 10° NNW 22:31:00 21° W 22:32:24 19° W visible
28 Sep 6.4 20:12:29 10° NNE 20:16:57 28° ENE 20:18:53 22° ESE visible
28 Sep 6.9 21:52:58 10° NNW 21:57:43 36° W 21:59:23 29° WSW visible
29 Sep 7.0 19:39:55 10° NE 19:43:06 16° ENE 19:45:55 11° ESE visible
29 Sep 5.8 21:19:09 10° N 21:24:20 66° W 21:26:26 35° SSW visible
30 Sep 5.4 20:45:35 10° N 20:50:49 70° E 20:53:35 28° SSE visible
30 Sep 8.2 22:28:05 10° NW 22:30:52 15° WNW 22:33:39 10° WSW visible
01 Oct 6.0 20:12:17 10° NNE 20:17:10 39° E 20:20:51 16° SE visible
01 Oct 7.5 21:53:25 10° NNW 21:57:40 26° W 22:01:23 12° SW visible
02 Oct 6.7 19:39:20 10° NNE 19:43:24 22° ENE 19:47:26 10° SE visible
02 Oct 6.5 21:19:22 10° NNW 21:24:21 46° W 21:28:52 12° SSW visible
03 Oct 5.5 20:45:40 10° N 20:50:54 83° W 20:56:08 10° S visible
04 Oct 5.6 20:12:12 10° N 20:17:20 55° E 20:22:27 10° SSE visible
04 Oct 8.0 21:54:04 10° NW 21:57:34 18° WNW 22:01:04 10° WSW visible
05 Oct 6.2 19:39:01 10° NNE 19:43:39 31° ENE 19:48:15 10° SE visible
05 Oct 7.2 21:19:43 10° NNW 21:24:20 32° W 21:28:54 10° SW visible
06 Oct 6.1 20:45:50 10° N 20:50:57 58° W 20:56:03 10° SSW visible
